Weather History for Dallas Addison, TX

Change the Weather History Date:

Tuesday, April 2, 2013

  Actual Average Record
Temperature  
Mean Temperature 60 °F -  
Max Temperature 69 °F 70 °F 91 °F (2006)
Min Temperature 50 °F 53 °F 46 °F (2005)
Degree Days  
Heating Degree Days 6    
Growing Degree Days 10 (Base 50)    
Moisture  
Dew Point 52 °F    
Average Humidity 66    
Maximum Humidity 88    
Minimum Humidity 46    
Precipitation  
Precipitation 0.00 in - - ()
Sea Level Pressure  
Sea Level Pressure 29.98 in    
Wind  
Wind Speed 11 mph (ESE)    
Max Wind Speed 22 mph    
Max Gust Speed 32 mph    
Visibility 10 miles    
Events Rain    
Averages and records for this station are not official NWS values.
T = Trace of Precipitation, MM = Missing Value Source: NWS Daily Summary

Daily Weather History Graph

Daily Weather History Graph

Search for Another Location

Airport:

Trip Planner

Search our weather history database for the weather conditions in past years. The results will help you decide how hot, cold, wet, or windy it might be!

Date:

Astronomy

Apr. 02, 2013 Rise Set
Actual Time 7:13 AM CDT 7:48 PM CDT
Civil Twilight 6:48 AM CDT 8:13 PM CDT
Nautical Twilight 6:19 AM CDT 8:42 PM CDT
Astronomical Twilight 5:49 AM CDT 9:12 PM CDT
Moon 1:41 AM CDT 12:18 PM CDT
Length of Visible Light 13h 24m
Length of Day
12h 34m
Waning Gibbous, 55% of the Moon is Illuminated
Apr 2
Waning Gibbous
Apr 2
Last Quarter
Apr 10
New
Apr 18
First Quarter
Apr 25
Full

Hourly Weather History & Observations

Time (CDT) Temp. Dew Point Humidity Pressure Visibility Wind Dir Wind Speed Gust Speed Precip Events Conditions
12:15 AM 68.0 °F 46.4 °F 46% 30.00 in 10.0 mi ESE 8.1 mph - N/A   Clear
12:35 AM 68.0 °F 46.4 °F 46% 30.00 in 10.0 mi ESE 5.8 mph - N/A   Clear
12:55 AM 68.0 °F 46.4 °F 46% 29.97 in 10.0 mi SE 11.5 mph - N/A   Clear
1:15 AM 68.0 °F 48.2 °F 49% 29.96 in 10.0 mi SSE 12.7 mph 21.9 mph N/A   Clear
1:35 AM 69.8 °F 48.2 °F 46% 29.97 in 10.0 mi ESE 9.2 mph - N/A   Clear
1:55 AM 68.0 °F 50.0 °F 52% 29.97 in 10.0 mi ESE 12.7 mph - N/A   Clear
2:15 AM 68.0 °F 50.0 °F 52% 29.97 in 10.0 mi ESE 9.2 mph - N/A   Clear
2:35 AM 68.0 °F 50.0 °F 52% 29.96 in 10.0 mi ESE 12.7 mph 17.3 mph N/A   Clear
2:55 AM 68.0 °F 50.0 °F 52% 29.97 in 10.0 mi ESE 11.5 mph - N/A   Mostly Cloudy
3:15 AM 68.0 °F 50.0 °F 52% 29.97 in 10.0 mi ESE 11.5 mph 17.3 mph N/A   Mostly Cloudy
3:35 AM 68.0 °F 51.8 °F 56% 29.97 in 10.0 mi SE 12.7 mph 19.6 mph N/A   Mostly Cloudy
3:55 AM 68.0 °F 53.6 °F 60% 29.96 in 10.0 mi SE 10.4 mph - N/A   Mostly Cloudy
4:15 AM 68.0 °F 53.6 °F 60% 29.95 in 10.0 mi SE 11.5 mph 16.1 mph N/A   Overcast
4:35 AM 68.0 °F 55.4 °F 64% 29.96 in 10.0 mi SE 11.5 mph - N/A   Overcast
4:55 AM 66.2 °F 55.4 °F 68% 29.95 in 10.0 mi SE 9.2 mph - N/A   Overcast
5:15 AM 66.2 °F 55.4 °F 68% 29.94 in 10.0 mi ESE 15.0 mph - N/A   Scattered Clouds
5:35 AM 66.2 °F 57.2 °F 73% 29.96 in 10.0 mi ESE 13.8 mph - N/A   Scattered Clouds
5:47 AM 66.2 °F 57.2 °F 73% 29.98 in 10.0 mi ESE 9.2 mph 16.1 mph N/A   Mostly Cloudy
5:55 AM 66.2 °F 57.2 °F 73% 29.97 in 10.0 mi SE 9.2 mph - N/A   Mostly Cloudy
6:50 AM 66.2 °F 60.8 °F 83% 29.97 in 10.0 mi ESE 16.1 mph 21.9 mph N/A   Scattered Clouds
7:47 AM 66.2 °F 60.8 °F 83% 29.96 in 10.0 mi ESE 16.1 mph 21.9 mph N/A   Mostly Cloudy
9:51 AM 66.2 °F 60.8 °F 83% 30.02 in 10.0 mi South 8.1 mph - N/A   Overcast
10:52 AM 68.0 °F 60.8 °F 78% 30.02 in 10.0 mi SSE 12.7 mph 18.4 mph N/A   Mostly Cloudy
12:47 PM 68.0 °F 59.0 °F 73% 30.00 in 10.0 mi South 12.7 mph 20.7 mph N/A   Overcast
1:47 PM 68.0 °F 60.8 °F 78% 30.00 in 7.0 mi South 9.2 mph - N/A   Overcast
2:48 PM 62.6 °F 59.0 °F 88% 29.98 in 7.0 mi NNW 8.1 mph - N/A   Overcast
3:55 PM 64.4 °F 59.0 °F 83% 29.94 in 6.0 mi NNE 5.8 mph - N/A   Mostly Cloudy
4:47 PM 66.2 °F 59.0 °F 78% 29.95 in 7.0 mi Calm Calm - N/A   Overcast
5:50 PM 68.0 °F 60.8 °F 78% 29.93 in 10.0 mi North 9.2 mph - N/A   Overcast
6:47 PM 66.2 °F 59.0 °F 78% 29.93 in 10.0 mi NNE 12.7 mph 17.3 mph N/A   Overcast
7:47 PM 62.6 °F 51.8 °F 68% 29.96 in 13.0 mi ENE 15.0 mph 26.5 mph N/A   Overcast
8:50 PM 59.0 °F 46.4 °F 63% 30.00 in 13.0 mi NE 16.1 mph 26.5 mph N/A   Overcast
9:47 PM 55.4 °F 44.6 °F 67% 30.00 in 10.0 mi NE 18.4 mph 27.6 mph N/A   Overcast
10:15 PM 53.6 °F 42.8 °F 67% 30.01 in 10.0 mi ENE 17.3 mph 29.9 mph N/A   Overcast
10:35 PM 53.6 °F 42.8 °F 67% 30.01 in 10.0 mi ENE 21.9 mph 32.2 mph N/A   Overcast
10:55 PM 51.8 °F 41.0 °F 67% 30.03 in 10.0 mi East 20.7 mph 24.2 mph N/A   Overcast
11:15 PM 51.8 °F 41.0 °F 67% 30.01 in 10.0 mi East 16.1 mph 26.5 mph N/A Rain Rain
11:35 PM 50.0 °F 42.8 °F 76% 30.00 in 10.0 mi East 16.1 mph 24.2 mph N/A Rain Light Rain
11:55 PM 51.8 °F 42.8 °F 71% 29.99 in 10.0 mi East 16.1 mph 28.8 mph N/A   Overcast